Location: Milevsko
(49.4500°N, 14.3670°E)
Time: 23:04:26
(UTC+02:00)

ISS - Pass Details

Date: 19 March 2023
Orbit: 413 x 421 km, 51.6° (Epoch: 30 March)

Event Time Altitude Azimuth Distance (km) Brightness Sun altitude
Rises 19:24:49 0° 237° (WSW) 2,350 0.7 -12.3°
Reaches altitude 10° 19:26:55 10° 233° (SW) 1,487 -0.4 -12.7°
Maximum altitude 19:30:12 57° 154° (SSE) 493 -3.7 -13.2°
Enters shadow 19:31:59 24° 83° (E) 908 -2.6 -13.4°
